Location: Caltech
(34.1382°N, 118.1253°W)
Time: 07:05:26
(UTC-07:00)

AO-27 - Visible Passes

Search period start: 27 June 2017 00:00
Search period end: 07 July 2017 00:00
Orbit: 786 x 797 km, 98.8° (Epoch: 26 June)

Date Brightness Start Highest point End Pass type
(mag) Time Alt. Az. Time Alt. Az. Time Alt. Az.
27 Jun 9.7 03:25:09 10° NE 03:29:10 22° E 03:33:08 10° SE visible
27 Jun 8.4 05:03:53 10° N 05:08:41 37° WNW 05:13:27 10° SW visible
28 Jun 10.3 02:58:54 10° E 02:59:51 10° E 03:00:49 10° ESE visible
28 Jun 7.7 04:34:32 10° N 04:39:46 73° WNW 04:44:58 10° SSW visible
29 Jun 8.2 04:05:35 10° NNE 04:10:45 57° E 04:15:37 11° S visible
30 Jun 9.3 03:37:05 10° NE 03:41:37 29° E 03:46:06 10° SSE visible
30 Jun 8.7 05:16:32 10° N 05:20:58 29° WNW 05:25:24 10° SW visible
01 Jul 10.1 03:09:32 10° ENE 03:12:21 15° E 03:15:10 10° SE visible
01 Jul 7.9 04:47:00 10° N 04:52:07 55° WNW 04:57:11 10° SSW visible
02 Jul 7.8 04:17:53 10° NNE 04:23:08 76° ESE 04:28:05 11° S visible
03 Jul 8.9 03:49:11 10° NNE 03:54:02 38° E 03:58:39 11° SSE visible
04 Jul 9.8 03:21:07 10° NE 03:24:51 20° E 03:28:33 10° SE visible
04 Jul 8.2 04:59:31 10° N 05:04:25 42° WNW 05:09:18 10° SW visible
05 Jul 7.6 04:30:15 10° N 04:35:30 82° WNW 04:40:32 11° SSW visible
06 Jul 8.4 04:01:22 10° NNE 04:06:28 51° E 04:11:06 12° S visible
